Location: Blue Pit
(43.1414°N, 93.2208°W)
Time: 02:25:57
(UTC+00:00)

Cosmos 1536 Rocket - Pass Details

Date: 18 November 2025
Orbit: 599 x 625 km, 82.5° (Epoch: 08 December)

Event Time Altitude Azimuth Distance (km) Brightness Sun altitude
Rises 23:35:08 0° 2° (N) 2,913 6.8 -9.1°
Reaches altitude 10° 23:37:40 10° 15° (NNE) 1,998 5.9 -9.6°
Maximum altitude 23:41:26 27° 73° (ENE) 1,203 4.5 -10.2°
Drops below altitude 10° 23:45:09 10° 132° (SE) 1,972 5.8 -10.9°
Sets 23:47:38 0° 145° (SE) 2,867 6.8 -11.3°
